Simultaneous Nadir Overpasses (SNOs) Predictions

Prediction of SNOs between GOES-15 and METOP-B Satellite Orbit:

Table of predicted SNOs for the next 14.0 days since TLE Epoch: 9/30/2023
Index Date Time (GOES-15) GOES-15 Lat,Lon METOP-B Lat,Lon Distance(km) Time Diff (sec)
1 10/01/2023 02:57:40 -0.31, 96.86 -0.40, 97.26 46.32 80
2 10/02/2023 15:19:25 0.32, 95.35 -0.29, 92.59 313.74 80
3 10/03/2023 14:56:08 0.30, 94.29 1.03, 97.54 370.36 80
4 10/05/2023 03:15:06 -0.31, 92.55 -0.41, 92.89 39.33 80
5 10/06/2023 15:36:50 0.32, 91.03 -0.32, 88.23 319.73 80
6 10/07/2023 15:13:34 0.30, 89.97 1.01, 93.17 364.85 80
7 10/09/2023 03:32:31 -0.31, 88.22 -0.40, 88.52 34.56 80
8 10/10/2023 15:54:15 0.32, 86.69 -0.32, 83.86 323.00 80
9 10/11/2023 15:30:59 0.30, 85.62 1.02, 88.80 362.15 80
10 10/13/2023 03:49:55 -0.31, 83.87 -0.36, 84.16 32.56 80
